• Join FlightAware (Why Join?)
  • Login
  • US Flag 
06:49PM EDT


 

Airport Tracker/Info


-or-


 

Live Flight TrackerFlight Track Log ✈ N71RG ✈ 09-Sep-2013 ✈ KDET - KCMH

Flight Track Log - Related Links

Times and Time Zones

All times are in EDT time to prevent confusion due to time zone crossing. See the N71RG flight status page for this flight to view local times or setup timezone preferences in your user account.

Time Position Orientation Groundspeed Altitude Reporting Facility
EDT Latitude Longitude Course Direction KTS MPH feet Rate Location/Type
06:34AM 41.4104 -82.9603 180° South  Level Estimated
06:35AM 41.3517 -82.9574 143° Southeast  Level Estimated
06:36AM 41.2929 -82.9545 146° Southeast  Level Estimated
06:37AM 41.2342 -82.9595 184° South  Level FlightAware Approximate
06:38AM 41.1741 -82.9685 186° South  Level FlightAware Approximate
06:38AM 41.2442 -83.0694 186° South 261 300 12,100  Level Indianapolis Center
06:39AM 41.1158 -82.9772 186° South  Level FlightAware Approximate
06:39AM 41.1931 -83.0611 173° South 263 303 12,000  Level Cleveland Center
06:40AM 41.0575 -82.9859 186° South  Level FlightAware Approximate
06:40AM 41.1203 -83.0528 175° South 263 303 12,000  Level Cleveland Center
06:41AM 40.9992 -82.9946 186° South  Level FlightAware Approximate
06:41AM 41.0475 -83.0419 174° South 263 303 12,000  Level Cleveland Center
06:42AM 40.9409 -83.0032 186° South  Level FlightAware Approximate
06:42AM 40.9769 -83.0308 173° South 263 303 12,000  Level Cleveland Center
06:43AM 40.8826 -83.0118 186° South  Level FlightAware Approximate
06:43AM 40.9042 -83.0228 175° South 263 303 12,000  Level Cleveland Center
06:44AM 40.8397 -83.0122 173° South 263 303 12,000 -300 Level Cleveland Center
06:45AM 40.7711 -83.0042 175° South 258 297 11,500 -780 Descending Cleveland Center
06:46AM 40.6583 -82.9875 174° South 276 318 10,200 -660 Descending Indianapolis Center
06:47AM 40.5836 -82.9764 174° South 269 310 10,000 -120 Descending Indianapolis Center
06:48AM 40.5119 -82.9650 173° South 258 297 10,000  Level Indianapolis Center
06:48AM 40.4931 -82.9614 172° South 254 292 10,000 -480 Level Indianapolis Center
06:49AM 40.4264 -82.9561 177° South 257 296 9,500 -780 Descending Indianapolis Center
06:50AM 40.3711 -82.9461 172° South 268 308 8,700 -1,200 Descending Indianapolis Center
06:50AM 40.3394 -82.9422 175° South 276 318 8,200 -1,200 Descending Indianapolis Center
06:51AM 40.3011 -82.9022 141° Southeast 287 330 7,500 -1,200 Descending Indianapolis Center
06:51AM 40.2781 -82.8803 144° Southeast 275 316 7,000 -1,200 Descending Indianapolis Center
06:52AM 40.2436 -82.8400 138° Southeast 273 314 6,300 -900 Descending Indianapolis Center
06:52AM 40.2189 -82.8158 143° Southeast 274 315 6,100 -300 Descending Indianapolis Center
06:53AM 40.1853 -82.7769 139° Southeast 273 314 6,000 -300 Descending Indianapolis Center
06:53AM 40.1636 -82.7550 142° Southeast 265 305 5,800 -840 Descending Indianapolis Center
06:54AM 40.1289 -82.7161 139° Southeast 265 305 5,200 -1,140 Descending Indianapolis Center
06:54AM 40.1081 -82.6972 145° Southeast 269 310 4,800 -1,140 Descending Indianapolis Center
06:55AM 40.0597 -82.6722 158° South 275 316 4,100 -1,020 Descending Indianapolis Center
06:55AM 40.0478 -82.6686 167° South 270 311 3,900 -1,080 Descending Indianapolis Center
06:56AM 39.9886 -82.6731 183° South 242 278 3,100 -900 Descending Indianapolis Center
06:56AM 39.9928 -82.6678 44° Northeast 257 296 3,100 -120 Level Indianapolis Center
06:57AM 39.9822 -82.7319 258° West 192 221 3,000 -120 Descending Indianapolis Center
06:57AM 39.9817 -82.7483 267° West 153 176 3,000 -900 Level Indianapolis Center
06:58AM 39.9878 -82.7956 280° West 149 171 2,200 -780 Descending Indianapolis Center
06:58AM 39.9861 -82.7903 112° Southeast 169 194 2,300 -900 Climbing Indianapolis Center
06:59AM 39.9894 -82.8450 275° West 121 139 1,300 -1,020 Descending Indianapolis Center
06:59AM 39.9906 -82.8469 307° West 147 169 1,300 -120 Level Indianapolis Center
07:00AM 39.9936 -82.8925 275° West 143 165 1,200 -120 Descending Indianapolis Center